Time,TemperatureF,DewpointF,PressureIn,WindDirection,WindDirectionDegrees,WindSpeedMPH,WindSpeedGustMPH,Humidity,HourlyPrecipIn,Conditions,Clouds,dailyrainin,SolarRadiationWatts/m^2,SoftwareType,DateUTC
2013-06-28 00:01:00,55.0,55.0,-100.00,SSW,208,1.0,4.0,99,0.00,,,0.03,0.000000,,2013-06-28 07:01:00,
2013-06-28 00:33:00,54.0,54.0,-100.00,NW,315,1.0,4.0,99,0.00,,,0.03,0.000000,,2013-06-28 07:33:00,
2013-06-28 00:43:00,54.0,54.0,-100.00,NW,315,1.0,4.0,99,0.00,,,0.03,0.000000,,2013-06-28 07:43:00,
2013-06-28 00:52:00,54.0,54.0,-100.00,NW,315,1.0,4.0,99,0.00,,,0.03,0.000000,,2013-06-28 07:52:00,
2013-06-28 01:01:00,54.0,54.0,-100.00,NW,315,1.0,4.0,99,0.00,,,0.03,0.000000,,2013-06-28 08:01:00,
2013-06-28 01:33:00,51.0,51.0,-100.00,NE,47,1.0,5.0,99,0.00,,,0.03,0.000000,,2013-06-28 08:33:00,
2013-06-28 01:43:00,51.0,51.0,-100.00,NE,47,1.0,5.0,99,0.00,,,0.03,0.000000,,2013-06-28 08:43:00,
2013-06-28 01:52:00,51.0,51.0,-100.00,NE,47,1.0,5.0,99,0.00,,,0.03,0.000000,,2013-06-28 08:52:00,
2013-06-28 02:02:00,51.0,51.0,-100.00,NE,47,1.0,5.0,99,0.00,,,0.03,0.000000,,2013-06-28 09:02:00,
2013-06-28 02:33:00,51.0,51.0,-100.00,NNE,18,1.0,6.0,99,0.00,,,0.02,0.000000,,2013-06-28 09:33:00,
2013-06-28 02:42:00,51.0,51.0,-100.00,NNE,18,1.0,6.0,99,0.00,,,0.02,0.000000,,2013-06-28 09:42:00,
2013-06-28 02:52:00,51.0,51.0,-100.00,NNE,18,1.0,6.0,99,0.00,,,0.02,0.000000,,2013-06-28 09:52:00,
2013-06-28 03:02:00,51.0,51.0,-100.00,NNE,18,1.0,6.0,99,0.00,,,0.02,0.000000,,2013-06-28 10:02:00,
2013-06-28 03:33:00,50.0,50.0,-100.00,South,175,1.0,5.0,99,0.00,,,-99.99,0.000000,,2013-06-28 10:33:00,
2013-06-28 03:42:00,50.0,50.0,-100.00,South,175,1.0,5.0,99,0.00,,,-99.99,0.000000,,2013-06-28 10:42:00,
2013-06-28 03:52:00,50.0,50.0,-100.00,South,175,1.0,5.0,99,0.00,,,-99.99,0.000000,,2013-06-28 10:52:00,
2013-06-28 04:01:00,50.0,50.0,-100.00,South,175,1.0,5.0,99,0.00,,,-99.99,0.000000,,2013-06-28 11:01:00,
2013-06-28 04:34:00,50.0,50.0,-100.00,East,100,1.0,6.0,99,0.00,,,0.02,0.000000,,2013-06-28 11:34:00,
2013-06-28 04:43:00,50.0,50.0,-100.00,East,100,1.0,6.0,99,0.00,,,0.02,0.000000,,2013-06-28 11:43:00,
2013-06-28 04:53:00,50.0,50.0,-100.00,East,100,1.0,6.0,99,0.00,,,0.02,0.000000,,2013-06-28 11:53:00,
2013-06-28 05:01:00,50.0,50.0,-100.00,East,100,1.0,6.0,99,0.00,,,0.02,0.000000,,2013-06-28 12:01:00,
2013-06-28 05:34:00,48.0,48.0,-100.00,NE,34,2.0,9.0,99,0.00,,,0.02,0.000000,,2013-06-28 12:34:00,
2013-06-28 05:43:00,48.0,48.0,-100.00,NE,34,2.0,9.0,99,0.00,,,0.02,0.000000,,2013-06-28 12:43:00,
2013-06-28 05:52:00,48.0,48.0,-100.00,NE,34,2.0,9.0,99,0.00,,,0.02,0.000000,,2013-06-28 12:52:00,
2013-06-28 06:01:00,48.0,48.0,-100.00,NE,34,2.0,9.0,99,0.00,,,0.02,0.000000,,2013-06-28 13:01:00,
2013-06-28 06:43:00,50.0,50.0,-100.00,SSW,201,1.0,7.0,99,0.00,,,-99.99,7.000000,,2013-06-28 13:43:00,
2013-06-28 06:53:00,50.0,50.0,-100.00,SSW,201,1.0,7.0,99,0.00,,,-99.99,7.000000,,2013-06-28 13:53:00,
2013-06-28 07:01:00,50.0,50.0,-100.00,SSW,201,1.0,7.0,99,0.00,,,-99.99,7.000000,,2013-06-28 14:01:00,
2013-06-28 07:33:00,51.0,51.0,-100.00,NNE,29,1.0,6.0,99,0.00,,,0.01,26.000000,,2013-06-28 14:33:00,
2013-06-28 07:44:00,51.0,51.0,-100.00,NNE,29,1.0,6.0,99,0.00,,,0.01,26.000000,,2013-06-28 14:44:00,
2013-06-28 07:53:00,51.0,51.0,-100.00,NNE,29,1.0,6.0,99,0.00,,,0.01,26.000000,,2013-06-28 14:53:00,
2013-06-28 08:02:00,51.0,51.0,-100.00,NNE,29,1.0,6.0,99,0.00,,,0.01,26.000000,,2013-06-28 15:02:00,
2013-06-28 08:34:00,56.0,56.0,-100.00,ENE,72,1.0,5.0,99,0.00,,,0.01,42.000000,,2013-06-28 15:34:00,
2013-06-28 08:43:00,56.0,56.0,-100.00,ENE,72,1.0,5.0,99,0.00,,,0.01,42.000000,,2013-06-28 15:43:00,
2013-06-28 08:52:00,56.0,56.0,-100.00,ENE,72,1.0,5.0,99,0.00,,,0.01,42.000000,,2013-06-28 15:52:00,
2013-06-28 09:01:00,56.0,56.0,-100.00,ENE,72,1.0,5.0,99,0.00,,,0.01,42.000000,,2013-06-28 16:01:00,
2013-06-28 09:53:00,71.0,59.0,-100.00,NW,310,2.0,11.0,65,0.00,,,0.01,498.000000,,2013-06-28 16:53:00,
2013-06-28 10:02:00,71.0,59.0,-100.00,NW,310,2.0,11.0,65,0.00,,,0.01,498.000000,,2013-06-28 17:02:00,
2013-06-28 13:33:00,89.0,54.0,-100.00,ENE,58,3.0,11.0,30,-99.99,,,0.00,1255.000000,,2013-06-28 20:33:00,
2013-06-28 13:43:00,89.0,54.0,-100.00,ENE,58,3.0,11.0,30,-99.99,,,0.00,1255.000000,,2013-06-28 20:43:00,
2013-06-28 15:34:00,90.0,53.0,-100.00,SSE,158,2.0,13.0,29,-99.99,,,0.00,1023.000000,,2013-06-28 22:34:00,
2013-06-28 15:43:00,90.0,53.0,-100.00,SSE,158,2.0,13.0,29,-99.99,,,0.00,1023.000000,,2013-06-28 22:43:00,
2013-06-28 15:52:00,90.0,53.0,-100.00,SSE,158,2.0,13.0,29,-99.99,,,0.00,1023.000000,,2013-06-28 22:52:00,
2013-06-28 16:34:00,90.0,54.0,-100.00,SSE,157,2.0,9.0,30,-99.99,,,0.00,949.000000,,2013-06-28 23:34:00,
2013-06-28 16:43:00,90.0,54.0,-100.00,SSE,157,2.0,9.0,30,-99.99,,,0.00,949.000000,,2013-06-28 23:43:00,
2013-06-28 18:32:00,91.0,57.0,-100.00,SSW,206,2.0,10.0,32,-99.99,,,0.00,703.000000,,2013-06-29 01:32:00,
2013-06-28 18:42:00,91.0,57.0,-100.00,SSW,206,2.0,10.0,32,-99.99,,,0.00,703.000000,,2013-06-29 01:42:00,
2013-06-28 19:31:00,85.0,62.0,-100.00,SSE,153,2.0,7.0,46,-99.99,,,0.00,279.000000,,2013-06-29 02:31:00,
2013-06-28 19:41:00,85.0,62.0,-100.00,SSE,153,2.0,7.0,46,-99.99,,,0.00,279.000000,,2013-06-29 02:41:00,
2013-06-28 19:51:00,85.0,62.0,-100.00,SSE,153,2.0,7.0,46,-99.99,,,0.00,279.000000,,2013-06-29 02:51:00,
2013-06-28 20:00:00,85.0,62.0,-100.00,SSE,153,2.0,7.0,46,-99.99,,,0.00,279.000000,,2013-06-29 03:00:00,
2013-06-28 20:32:00,73.0,61.0,-100.00,West,281,2.0,8.0,67,0.00,,,0.00,73.000000,,2013-06-29 03:32:00,
2013-06-28 20:41:00,73.0,61.0,-100.00,West,281,2.0,8.0,67,0.00,,,0.00,73.000000,,2013-06-29 03:41:00,
2013-06-28 20:51:00,73.0,61.0,-100.00,West,281,2.0,8.0,67,0.00,,,0.00,73.000000,,2013-06-29 03:51:00,
2013-06-28 21:01:00,73.0,61.0,-100.00,West,281,2.0,8.0,67,0.00,,,0.00,73.000000,,2013-06-29 04:01:00,
2013-06-28 21:32:00,67.0,61.0,-100.00,SSE,168,1.0,6.0,80,0.00,,,0.00,8.000000,,2013-06-29 04:32:00,
2013-06-28 21:41:00,67.0,61.0,-100.00,SSE,168,1.0,6.0,80,0.00,,,0.00,8.000000,,2013-06-29 04:41:00,
2013-06-28 21:51:00,67.0,61.0,-100.00,SSE,168,1.0,6.0,80,0.00,,,0.00,8.000000,,2013-06-29 04:51:00,
2013-06-28 22:01:00,67.0,61.0,-100.00,SSE,168,1.0,6.0,80,0.00,,,0.00,8.000000,,2013-06-29 05:01:00,
2013-06-28 22:31:00,65.0,62.0,-100.00,NE,50,1.0,5.0,89,0.00,,,0.00,0.000000,,2013-06-29 05:31:00,
2013-06-28 22:41:00,65.0,62.0,-100.00,NE,50,1.0,5.0,89,0.00,,,0.00,0.000000,,2013-06-29 05:41:00,
2013-06-28 22:51:00,65.0,62.0,-100.00,NE,50,1.0,5.0,89,0.00,,,0.00,0.000000,,2013-06-29 05:51:00,
2013-06-28 23:01:00,65.0,62.0,-100.00,NE,50,1.0,5.0,89,0.00,,,0.00,0.000000,,2013-06-29 06:01:00,
2013-06-28 23:34:00,62.0,61.0,-100.00,NNW,342,1.0,3.0,96,0.00,,,0.00,0.000000,,2013-06-29 06:34:00,
2013-06-28 23:43:00,62.0,61.0,-100.00,NNW,342,1.0,3.0,96,0.00,,,0.00,0.000000,,2013-06-29 06:43:00,
2013-06-28 23:53:00,62.0,61.0,-100.00,NNW,342,1.0,3.0,96,0.00,,,0.00,0.000000,,2013-06-29 06:53:00,